Regional Weather Roundup
Issued by NWS

Home | Current Version | Previous Version | Text Only | Print | Product List | Glossary On
Versions: 1 2 3 4 5 6 7 8 9 10 11 12 13 14 15 16 17 18 19 20 21 22 23 24 25 26 27 28 29 30 31 32 33 34 35 36 37 38 39 40 41 42 43 44 45 46 47 48 49 50
106
ASUS44 KLIX 020910
RWRLA
LOUISIANA WEATHER ROUNDUP
NATIONAL WEATHER SERVICE NEW ORLEANS LA
400 AM CDT TUE SEP 02 2014

NOTE: "FAIR" INDICATES FEW OR NO CLOUDS BELOW 12,000 FEET WITH NO
      SIGNIFICANT WEATHER AND/OR OBSTRUCTIONS TO VISIBILITY.
      SKY/WX - SKY CONDITION AND SIGNIFICANT WEATHER.
      TMP - AIR TEMPERATURE.    DP   - DEWPOINT TEMPERATURE.
      RH  - RELATIVE HUMIDITY.  PRES - PRESSURE.
      HX  - HEAT INDEX.         WCI  - WIND CHILL INDEX.

*  THESE STATIONS ARE NOT NWS OR FAA STATIONS AND ARE NOT UNDER
   NWS QUALITY CONTROL.

LAZ040-048-061>063-065-066-069-021000-
SOUTHEAST LOUISIANA

CITY           SKY/WX    TMP DP  RH WIND       PRES   REMARKS
N.O. AUDUBON     N/A     80  79  97 MISG        N/A
N.O. INTL ARPT PTCLDY    79  74  84 CALM      30.01R
N.O. LAKEFRONT CLEAR     79  77  94 SE3       30.02R
N.O. DOWNTOWN* FAIR      81  75  83 CALM      30.02R
SLIDELL        MOCLDY    77  75  93 N6        30.02R
BATON ROUGE    PTCLDY    75  74  96 E6        30.01R
BOOTHVILLE     CLEAR     83  77  82 S7        30.01S
BELLE CHASSE   PTCLDY    78  74  87 CALM      30.01R
BOGALUSA*        N/A     76  72  89 CALM      30.04S
GALLIANO*      NOT AVBL
NEW ROADS*     FAIR      76  75  97 CALM      30.00F
GONZALES*        N/A     75  75 100 CALM      30.01R
HAMMOND*       PTCLDY    77  73  88 CALM      30.04R
HOUMA*         CLEAR     77  73  87 CALM      30.00R
PORT FOURCHON* MOSUNNY   84  75  74 S8        30.01S

$$

LAZ041-044-053-054-021000-
SOUTHWEST LOUISIANA

CITY           SKY/WX    TMP DP  RH WIND       PRES   REMARKS
LAKE CHARLES   LGT RAIN  78  77  96 SE3       29.97R
LAFAYETTE      PTCLDY    77  76  96 CALM      29.99R
PATTERSON        N/A     77  75  94 CALM      30.03R
SALT POINT       N/A     85  77  77 VRB5      29.99R HX  95
NEW IBERIA     CLEAR     78  75  90 E3        30.00R
CHENAULT AIRPK PTCLDY    78  76  94 CALM      29.99R

$$

LAZ027-028-021000-
CENTRAL LOUISIANA

CITY           SKY/WX    TMP DP  RH WIND       PRES   REMARKS
FORT POLK      CLOUDY    75  75 100 SE5       29.98F
ALEXANDRIA INT PTCLDY    75  74  96 SE5       29.97S
ALEXANDRIA     MOCLDY    75  72  90 CALM      29.99F

$$

LAZ001-002-021000-
NORTHWEST LOUISIANA

CITY           SKY/WX    TMP DP  RH WIND       PRES   REMARKS
SHREVEPORT     MOCLDY    78  75  90 S7        29.94S
BARKSDALE AFB  CLOUDY    77  77 100 S8        29.95S
DTN SHREVEPORT MOCLDY    78  75  90 S8        29.94F

$$

LAZ014-016-021000-
NORTHEAST LOUISIANA

CITY           SKY/WX    TMP DP  RH WIND       PRES   REMARKS
MONROE         MOCLDY    75  73  94 S6        29.99F
TALLULAH       MOCLDY    76  74  93 S3        30.00F

$$




USA.gov is the U.S. government's official web portal to all federal, state and local government web resources and services.